This is the latest recevied weather packets stored in our database for station/object KC5DAQ-28. If no packets are shown the sender has not sent any weather packets the latest 1 day(s).
| Time | Temp. | Humidity | Pressure | Rain* | Wind** | Luminosity | Snow |
|---|---|---|---|---|---|---|---|
| 1778039822 | 25.56° C | 85% | 1003 hPa | 0 mm | 1.34 m/s, 172° | 0 W/m² | - |
| 1778039762 | 25.56° C | 85% | 1003.1 hPa | 0 mm | 2.24 m/s, 164° | 0 W/m² | - |
| 1778039704 | 25.56° C | 85% | 1003.1 hPa | 0 mm | 1.79 m/s, 127° | 0 W/m² | - |
| 1778039644 | 25.56° C | 85% | 1003.1 hPa | 0 mm | 1.34 m/s, 131° | 0 W/m² | - |
| 1778039582 | 25.56° C | 85% | 1003.1 hPa | 0 mm | 1.79 m/s, 116° | 0 W/m² | - |
| 1778039524 | 25.56° C | 85% | 1003 hPa | 0 mm | 1.79 m/s, 188° | 0 W/m² | - |
| 1778039462 | 25.56° C | 85% | 1003 hPa | 0 mm | 1.79 m/s, 138° | 0 W/m² | - |
| 1778039402 | 25.56° C | 85% | 1003.1 hPa | 0 mm | 1.79 m/s, 142° | 0 W/m² | - |
| 1778039343 | 25.56° C | 85% | 1003.1 hPa | 0 mm | 1.79 m/s, 175° | 0 W/m² | - |
| 1778039282 | 25.56° C | 85% | 1003.1 hPa | 0 mm | 1.79 m/s, 169° | 0 W/m² | - |
| 1778039223 | 25.56° C | 85% | 1003.1 hPa | 0 mm | 1.34 m/s, 131° | 0 W/m² | - |
| 1778039163 | 25.56° C | 85% | 1003.1 hPa | 0 mm | 1.79 m/s, 213° | 0 W/m² | - |
| 1778039104 | 25.56° C | 85% | 1003.2 hPa | 0 mm | 1.79 m/s, 149° | 0 W/m² | - |
| 1778039042 | 25.56° C | 85% | 1003.1 hPa | 0 mm | 1.79 m/s, 128° | 0 W/m² | - |
| 1778038984 | 25.56° C | 85% | 1003.2 hPa | 0 mm | 1.79 m/s, 124° | 0 W/m² | - |
| 1778038922 | 25.56° C | 85% | 1003.2 hPa | 0 mm | 1.79 m/s, 128° | 0 W/m² | - |
| 1778038863 | 25.56° C | 85% | 1003.1 hPa | 0 mm | 1.79 m/s, 151° | 0 W/m² | - |
| 1778038802 | 25.56° C | 85% | 1003.2 hPa | 0 mm | 1.79 m/s, 135° | 0 W/m² | - |
| 1778038743 | 25.56° C | 85% | 1003.2 hPa | 0 mm | 1.79 m/s, 144° | 0 W/m² | - |
| 1778038683 | 25.56° C | 85% | 1003.2 hPa | 0 mm | 1.34 m/s, 137° | 0 W/m² | - |
| 1778038622 | 25.56° C | 85% | 1003.1 hPa | 0 mm | 0.89 m/s, 180° | 0 W/m² | - |
| 1778038563 | 25.56° C | 85% | 1003.1 hPa | 0 mm | 0.89 m/s, 182° | 0 W/m² | - |
| 1778038504 | 25.56° C | 85% | 1003.1 hPa | 0 mm | 0.89 m/s, 166° | 0 W/m² | - |
| 1778038444 | 25.56° C | 85% | 1003.1 hPa | 0 mm | 0.89 m/s, 135° | 0 W/m² | - |
| 1778038382 | 25.56° C | 85% | 1003.1 hPa | 0 mm | 0.89 m/s, 144° | 0 W/m² | - |
* Rain latest hour (hover to see other rain measurements)
** Current wind speed in m/s (hover to see current wind gust speed)